This is the latest recevied weather packets stored in our database for station/object YO6LRV-3. If no packets are shown the sender has not sent any weather packets the latest 10 day(s).
| Time | Temp. | Humidity | Pressure | Rain* | Wind** | Luminosity | Snow |
|---|---|---|---|---|---|---|---|
| 1778000772 | 23.33° C | 27% | 1011.8 hPa | - | - | - | - |
| 1777999872 | 23.89° C | 29% | 1011.8 hPa | - | - | - | - |
| 1777998972 | 23.89° C | 29% | 1011.9 hPa | - | - | - | - |
| 1777998071 | 24.44° C | 29% | 1012.1 hPa | - | - | - | - |
| 1777997171 | 25° C | 28% | 1012 hPa | - | - | - | - |
| 1777996271 | 25° C | 26% | 1012.2 hPa | - | - | - | - |
| 1777995371 | 25.56° C | 29% | 1012.3 hPa | - | - | - | - |
| 1777994471 | 26.11° C | 29% | 1012.2 hPa | - | - | - | - |
| 1777993571 | 26.67° C | 28% | 1012.4 hPa | - | - | - | - |
| 1777992670 | 27.22° C | 27% | 1012.5 hPa | - | - | - | - |
| 1777991770 | 27.22° C | 29% | 1012.7 hPa | - | - | - | - |
| 1777990863 | 27.22° C | 27% | 1012.9 hPa | - | - | - | - |
| 1777989963 | 27.78° C | 29% | 1013 hPa | - | - | - | - |
| 1777989070 | 28.33° C | 28% | 1013.1 hPa | - | - | - | - |
| 1777988170 | 28.89° C | 27% | 1013.3 hPa | - | - | - | - |
| 1777987270 | 29.44° C | 26% | 1013.4 hPa | - | - | - | - |
| 1777986372 | 30° C | 27% | 1013.6 hPa | - | - | - | - |
| 1777985472 | 30° C | 25% | 1013.8 hPa | - | - | - | - |
| 1777984572 | 30.56° C | 25% | 1014 hPa | - | - | - | - |
| 1777983672 | 30.56° C | 28% | 1014.2 hPa | - | - | - | - |
| 1777982764 | 30.56° C | 27% | 1014.3 hPa | - | - | - | - |
| 1777981871 | 30° C | 28% | 1014.5 hPa | - | - | - | - |
| 1777980971 | 30° C | 28% | 1014.6 hPa | - | - | - | - |
| 1777980071 | 29.44° C | 31% | 1014.7 hPa | - | - | - | - |
| 1777979171 | 28.33° C | 32% | 1014.8 hPa | - | - | - | - |
* Rain since midnight (hover to see other rain measurements)
** Current wind speed in m/s (hover to see current wind gust speed)